"Pseudo-MPEC" for C14ZE95

Created 2025 Jul 7 22:35:05 UT using Find_Orb

Click here for an explanation of pseudo-MPECs

 
 Astrometry: 
     C14ZE95* C2025 07 06.41967222 57 35.716-04 41 15.79   ~76CK 22.02GVNEOCPV00
     C14ZE95  C2025 07 06.42527122 57 43.862-04 40 06.42   ~76CK 21.72GVNEOCPV00
     C14ZE95  C2025 07 06.43085522 57 52.038-04 38 55.90   ~76CK       VNEOCPV00
     C14ZE95  C2025 07 06.43644522 58 00.354-04 37 44.44   ~76CK 21.42GVNEOCPV00

Station data:
(V00) Kitt Peak-Bok  (N31.963125 W111.600190)  US/Arizona.  Observers T. A.
   Pruyne, B. M. Africano, E. J. Christensen, G. A. Farneth, D. C. Fuls, A.
   R. Gibbs, A. D. Grauer, H. Gröller, J. A. Johnson, R. A. Kowalski, S. M.
   Larson, G. J. Leonard, D. Rankin, R. L. Seaman, F. C. Shelly, K. W.
   Wierzchoś. 2.25-m reflector + 4x4K mosaic CCD.

Orbital elements:  C14ZE95
   Perihelion 2025 Aug 9.72835 +/- 21.9 TT = 17:28:49 (JD 2460897.22835)
Epoch 2025 Jul  6.0 TT = JDT 2460862.5   Earth MOID: 0.0009   Ve: 0.0136
M 345.76026317 +/- 40               Me: 0.0320   Ma: 0.0493      AutoNEOCP
n   0.41003200 +/- 0.465            Peri.  337.97509 +/- 90
a   1.79442044 +/- 1.36             Node   105.07685 +/- 130
e   0.9734719 +/- 0.241             Incl.  176.12959 +/- 60
P   2.404/877.964d         H 26.77  G  0.15   U 12.2  SR
q 0.04760242 +/- 0.345    Q 3.54123845 +/- 12.3           (J2000 ecliptic)
From 4 observations 2025 July 6 (24.2 min); mean residual 0".26
Residuals in arcseconds: 
250706 V00  .17+  .28+    250706 V00  .41-  .19-    
250706 V00  .06-  .33-    250706 V00  .29+  .23+    

Ephemerides (geocentric):
Date (UTC) HH   RA             Dec           delta  r     elong  mag " sig PA
---- --------  ------------   ------------  ------ ------ -----  --- --------
2025 07 07 23  06 43 53.715   +28 01 59.09  .00884 1.0078   7.8 36??  54d  95
2025 07 08 00  07 10 34.340   +26 57 06.09  .00962 1.0070   4.5 44??  60d  92
2025 07 08 01  07 32 37.317   +25 48 01.18  .01048 1.0062   6.4 39??  61d  92
2025 07 08 02  07 50 50.161   +24 40 19.72  .01142 1.0054   9.9 34??  62d  92
2025 07 08 03  08 05 57.383   +23 36 48.84  .01240 1.0045  13.2 31??  63d  92
2025 07 08 04  08 18 36.380   +22 38 35.09  .01343 1.0037  16.0 29??  63d  92
2025 07 08 05  08 29 17.069   +21 45 50.56  .01450 1.0029  18.5 29??  64d  92
2025 07 08 06  08 38 22.880   +20 58 20.46  .01558 1.0020  20.7 28??  64d  92
2025 07 08 07  08 46 12.039   +20 15 38.43  .01669 1.0012  22.6 27??  65d  92
2025 07 08 08  08 52 58.737   +19 37 14.53  .01782 1.0004  24.2 27??  65d  92
2025 07 08 09  08 58 54.078   +19 02 39.29  .01896 0.9995  25.7 27??  66d  92
2025 07 08 10  09 04 06.814   +18 31 25.43  .02011 0.9987  27.0 27??  66d  91
2025 07 08 11  09 08 43.898   +18 03 08.53  .02128 0.9979  28.1 27??  66d  91
2025 07 08 12  09 12 50.905   +17 37 27.17  .02245 0.9970  29.1 27??  66d  91
2025 07 08 13  09 16 32.341   +17 14 02.69  .02362 0.9962  30.0 26??  66d  91
2025 07 08 14  09 19 51.881   +16 52 38.94  .02481 0.9954  30.8 26??  66d  91
2025 07 08 15  09 22 52.544   +16 33 01.96  .02600 0.9945  31.6 26??  67d  91
2025 07 08 16  09 25 36.832   +16 14 59.69  .02719 0.9937  32.3 26??  67d  91
2025 07 08 17  09 28 06.832   +15 58 21.69  .02839 0.9929  32.9 26??  67d  91
2025 07 08 18  09 30 24.296   +15 42 58.92  .02959 0.9920  33.4 26??  67d  91
2025 07 08 19  09 32 30.707   +15 28 43.51  .03079 0.9912  33.9 26??  67d  91
2025 07 08 20  09 34 27.326   +15 15 28.61  .03200 0.9904  34.4 26??  67d  91
2025 07 08 21  09 36 15.231   +15 03 08.23  .03321 .98952  34.9 26??  67d  91
2025 07 08 22  09 37 55.351   +14 51 37.10  .03442 .98869  35.3 26??  67d  91
2025 07 08 23  09 39 28.487   +14 40 50.62  .03563 .98785  35.6 26??  67d  91
2025 07 09 00  09 40 55.338   +14 30 44.70  .03685 .98701  36.0 26??  67d  91
2025 07 09 01  09 42 16.509   +14 21 15.73  .03806 .98617  36.3 26??  67d  91
2025 07 09 02  09 43 32.536   +14 12 20.52  .03928 .98533  36.6 26??  67d  91
2025 07 09 03  09 44 43.885   +14 03 56.19  .04050 .98449  36.9 26??  67d  90
2025 07 09 04  09 45 50.971   +13 56 00.23  .04172 .98365  37.1 26??  67d  90
2025 07 09 05  09 46 54.161   +13 48 30.33  .04294 .98281  37.4 26??  67d  90
2025 07 09 06  09 47 53.781   +13 41 24.46  .04416 .98196  37.6 26??  67d  90
2025 07 09 07  09 48 50.122   +13 34 40.77  .04539 .98112  37.8 26??  67d  90
2025 07 09 08  09 49 43.444   +13 28 17.62  .04661 .98028  38.0 27??  67d  90
2025 07 09 09  09 50 33.982   +13 22 13.49  .04784 .97943  38.2 27??  67d  90
2025 07 09 10  09 51 21.944   +13 16 27.02  .04906 .97859  38.4 27??  66d  90
2025 07 09 11  09 52 07.522   +13 10 56.99  .05029 .97775  38.5 27??  66d  90
2025 07 09 12  09 52 50.887   +13 05 42.27  .05152 .97690  38.7 27??  66d  90
2025 07 09 13  09 53 32.193   +13 00 41.83  .05275 .97606  38.8 27??  66d  90
2025 07 09 14  09 54 11.584   +12 55 54.74  .05397 .97521  39.0 27??  66d  90
2025 07 09 15  09 54 49.186   +12 51 20.14  .05520 .97436  39.1 27??  66d  90
2025 07 09 16  09 55 25.119   +12 46 57.25  .05643 .97352  39.2 27??  66d  90
2025 07 09 17  09 55 59.489   +12 42 45.35  .05766 .97267  39.3 27??  66d  90
2025 07 09 18  09 56 32.395   +12 38 43.76  .05889 .97182  39.5 27??  66d  90
2025 07 09 19  09 57 03.927   +12 34 51.88  .06012 .97097  39.6 27??  66d  90
2025 07 09 20  09 57 34.168   +12 31 09.15  .06136 .97012  39.7 27??  66d  90
2025 07 09 21  09 58 03.196   +12 27 35.04  .06259 .96928  39.7 27??  66d  89
2025 07 09 22  09 58 31.079   +12 24 09.07  .06382 .96843  39.8 27??  66d  89